User: anonymous   Login
Location: Mactaquac Provincial Park
(45.9573°N, 66.8897°W)
Time: 11:56:40
(UTC-03:00)
Language:

Cosmos 1766 - Orbit

View from above orbital plane
View from above orbital plane
View from above satellite
View from above satellite

Ground track
Ground track

The orbit data is extracted from the following two-line orbital elements,

1 16881U 86055A   14302.94366016  .00004720  00000-0  31848-3 0    39
2 16881 082.5109 242.1151 0014786 116.6332 243.6412 15.06327271536487
Epoch (UTC): 29 October 2014 22:38:52
Eccentricity: 0.0014786
inclination: 82.5109°
perigee height: 537 km
apogee height: 557 km
right ascension of ascending node: 242.1151°
argument of perigee: 116.6332°
revolutions per day: 15.06327271
mean anomaly at epoch: 243.6412°
orbit number at epoch: 53648

The dashed part of the orbit path shows where the satellite is in the earth's shadow,  

DLR